GW3210 Weather Reports


Display with metric or nautical units.
time (UTC)temp
F
wind
direction
speed
MPH
gust
MPH
rain 1hr
in
rain 24hr
in
rain mn
in
humidity
%
barometer
mb
20260831225456 85 248 6.0 8.0 0.00 0.00 0.00 25 1009.8
20260831224416 85 225 2.0 4.0 0.00 0.00 0.00 25 1009.9
20260831223415 84 270 2.0 4.0 0.00 0.00 0.00 26 1010.1
20260831222416 83 248 2.0 4.0 0.00 0.00 0.00 28 1010.0
20260831221416 84 270 4.0 9.0 0.00 0.00 0.00 27 1010.3
20260831220416 84 225 4.0 9.0 0.00 0.00 0.00 27 1010.3
20260831215415 84 248 4.0 8.0 0.00 0.00 0.00 27 1010.4
20260831214416 83 225 3.0 6.0 0.00 0.00 0.00 28 1010.4
20260831213416 83 270 5.0 8.0 0.00 0.00 0.00 29 1010.5
20260831212415 83 248 6.0 8.0 0.00 0.00 0.00 28 1010.6
20260831211416 82 270 6.0 9.0 0.00 0.00 0.00 29 1010.6
20260831210419 82 270 5.0 10.0 0.00 0.00 0.00 29 1010.7
20260831205436 82 293 5.0 7.0 0.00 0.00 0.00 30 1010.8
20260831204416 82 293 4.0 7.0 0.00 0.00 0.00 31 1010.8
20260831203416 82 293 5.0 7.0 0.00 0.00 0.00 31 1010.8
20260831202416 81 270 5.0 7.0 0.00 0.00 0.00 32 1010.9
20260831201415 81 270 4.0 7.0 0.00 0.00 0.00 32 1011.0
20260831200415 81 315 3.0 6.0 0.00 0.00 0.00 32 1011.2
20260831195415 80 270 5.0 9.0 0.00 0.00 0.00 33 1011.4
20260831194435 80 293 4.0 8.0 0.00 0.00 0.00 33 1011.5
20260831193415 79 315 4.0 6.0 0.00 0.00 0.00 33 1011.6
20260831192418 78 270 3.0 6.0 0.00 0.00 0.00 35 1011.7
20260831191435 77 270 6.0 9.0 0.00 0.00 0.00 35 1012.0
20260831190415 77 315 3.0 5.0 0.00 0.00 0.00 36 1012.0
20260831185415 76 293 6.0 9.0 0.00 0.00 0.00 36 1012.2
20260831184416 76 293 5.0 8.0 0.00 0.00 0.00 38 1012.2
20260831183415 75 315 1.0 3.0 0.00 0.00 0.00 38 1012.2
20260831182415 74 293 3.0 5.0 0.00 0.00 0.00 40 1012.4
20260831181415 73 338 3.0 5.0 0.00 0.00 0.00 43 1012.6
20260831180415 72 338 4.0 5.0 0.00 0.00 0.00 45 1012.7
20260831175415 70 270 4.0 7.0 0.00 0.00 0.00 45 1012.6
20260831174435 69 315 4.0 7.0 0.00 0.00 0.00 47 1012.6
20260831173417 68 338 3.0 4.0 0.00 0.00 0.00 51 1012.7
20260831172418 67 315 4.0 5.0 0.00 0.00 0.00 52 1012.8
20260831171417 65 315 4.0 5.0 0.00 0.00 0.00 55 1012.9
20260831170437 64 293 4.0 8.0 0.00 0.00 0.00 56 1012.8
20260831165417 62 293 3.0 3.0 0.00 0.00 0.00 58 1012.7
20260831164417 60 270 7.0 8.0 0.00 0.00 0.00 59 1012.7
20260831163417 59 270 5.0 7.0 0.00 0.00 0.00 61 1012.9
20260831162417 58 293 4.0 4.0 0.00 0.00 0.00 61 1013.0
20260831161417 57 270 5.0 7.0 0.00 0.00 0.00 63 1013.0
20260831160417 56 293 4.0 6.0 0.00 0.00 0.00 64 1013.2
20260831155417 56 315 3.0 5.0 0.00 0.00 0.00 65 1013.2
20260831154417 55 293 4.0 5.0 0.00 0.00 0.00 65 1013.3
20260831153417 55 293 3.0 6.0 0.00 0.00 0.00 66 1013.4
20260831152417 55 270 5.0 7.0 0.00 0.00 0.00 67 1013.3
20260831151437 55 293 3.0 4.0 0.00 0.00 0.00 67 1013.4
20260831150417 54 293 3.0 3.0 0.00 0.00 0.00 70 1013.3
20260831145417 54 293 3.0 3.0 0.00 0.00 0.00 72 1013.5
20260831144437 53 293 2.0 2.0 0.00 0.00 0.00 73 1013.5
20260831143417 53 293 1.0 2.0 0.00 0.00 0.00 73 1013.5
20260831142417 53 293 2.0 2.0 0.00 0.00 0.00 73 1013.5
20260831141417 53 293 1.0 2.0 0.00 0.00 0.00 73 1013.4
20260831140417 52 270 2.0 3.0 0.00 0.00 0.00 74 1013.5
20260831135408 52 293 2.0 2.0 0.00 0.00 0.00 74 1013.5
20260831135117 52 293 2.0 3.0 0.00 0.00 0.00 73 1013.6
20260831134116 52 203 1.0 2.0 0.00 0.00 0.00 72 1013.5
20260831133117 52 0.0 1.0 0.00 0.00 0.00 69 1013.5
20260831132116 52 0.0 1.0 0.00 0.00 0.00 69 1013.6
20260831131136 52 0.0 0.0 0.00 0.00 0.00 69 1013.7
20260831130116 52 0.0 0.0 0.00 0.00 0.00 69 1013.7
20260831125117 52 0.0 0.0 0.00 0.00 0.00 68 1013.8
20260831124116 52 0.0 0.0 0.00 0.00 0.00 67 1013.9
20260831123117 53 0.0 0.0 0.00 0.00 0.00 67 1013.9
20260831122117 53 0.0 0.0 0.00 0.00 0.00 66 1014.1
20260831121116 53 0.0 1.0 0.00 0.00 0.00 66 1014.2
20260831120137 53 0.0 1.0 0.00 0.00 0.00 66 1014.2
20260831115136 53 158 1.0 1.0 0.00 0.00 0.00 67 1014.2
20260831114137 54 158 1.0 1.0 0.00 0.00 0.00 67 1014.2
20260831113117 54 0.0 0.0 0.00 0.00 0.00 67 1014.2
20260831112117 54 0.0 0.0 0.00 0.00 0.00 67 1014.4
20260831111116 54 0.0 0.0 0.00 0.00 0.00 66 1014.4
20260831110136 54 0.0 0.0 0.00 0.00 0.00 67 1014.6
20260831105116 54 0.0 0.0 0.00 0.00 0.00 67 1014.6
20260831104116 54 0.0 0.0 0.00 0.00 0.00 67 1014.6
20260831103116 54 0.0 0.0 0.00 0.00 0.00 67 1014.6
20260831102136 55 0.0 0.0 0.00 0.00 0.00 66 1014.8
20260831101116 55 0.0 0.0 0.00 0.00 0.00 66 1014.8
20260831100116 55 0.0 1.0 0.00 0.00 0.00 66 1014.9
20260831095116 55 158 1.0 1.0 0.00 0.00 0.00 66 1015.0
20260831094116 55 158 1.0 1.0 0.00 0.00 0.00 66 1015.1
20260831093116 55 0.0 0.0 0.00 0.00 0.00 65 1015.2
20260831092118 55 0.0 0.0 0.00 0.00 0.00 65 1015.3
20260831091116 56 0.0 0.0 0.00 0.00 0.00 65 1015.4
20260831090116 56 158 1.0 1.0 0.00 0.00 0.00 64 1015.3
20260831085136 56 0.0 1.0 0.00 0.00 0.00 64 1015.5
20260831084116 56 158 1.0 1.0 0.00 0.00 0.00 65 1015.6
20260831083116 56 158 1.0 1.0 0.00 0.00 0.00 64 1015.6
20260831082116 56 135 1.0 1.0 0.00 0.00 0.00 64 1015.7
20260831081116 56 135 2.0 3.0 0.00 0.00 0.00 64 1015.9
20260831080136 56 113 2.0 3.0 0.00 0.00 0.00 63 1015.9
20260831075116 57 0.0 0.0 0.00 0.00 0.00 63 1016.0
20260831074116 57 0.0 1.0 0.00 0.00 0.00 62 1016.1
20260831073116 57 0.0 1.0 0.00 0.00 0.00 62 1016.2
20260831072118 58 0.0 0.0 0.00 0.00 0.00 61 1016.3
20260831065116 59 68 1.0 2.0 0.00 0.00 0.00 60 1016.5
20260831064117 59 23 1.0 2.0 0.00 0.00 0.00 60 1016.6
20260831063117 60 23 2.0 3.0 0.00 0.00 0.00 59 1016.6
20260831062117 60 0.0 1.0 0.00 0.00 0.00 59 1016.7
20260831061137 60 293 1.0 2.0 0.00 0.00 0.00 58 1016.9
20260831060137 61 293 1.0 1.0 0.00 0.00 0.00 58 1016.9
20260831055116 61 315 1.0 3.0 0.00 0.00 0.00 57 1017.0
20260831054137 61 293 2.0 3.0 0.00 0.00 0.00 57 1017.1
20260831053117 62 315 3.0 5.0 0.00 0.00 0.00 57 1017.1
20260831052116 62 315 5.0 7.0 0.00 0.00 0.00 57 1017.3
20260831051116 62 315 3.0 5.0 0.00 0.00 0.00 56 1017.3
20260831050117 62 315 4.0 7.0 0.00 0.00 0.00 56 1017.4
20260831045116 62 338 2.0 3.0 0.00 0.00 0.00 55 1017.4
20260831044116 62 315 2.0 3.0 0.00 0.00 0.00 55 1017.5
20260831043136 63 338 3.0 4.0 0.00 0.00 0.00 54 1017.5
20260831042116 63 315 3.0 4.0 0.00 0.00 0.00 53 1017.5
20260831041116 63 315 3.0 4.0 0.00 0.00 0.00 53 1017.5
20260831040116 64 315 2.0 3.0 0.00 0.00 0.00 52 1017.5
20260831035116 64 293 4.0 6.0 0.00 0.00 0.00 51 1017.6
20260831034117 64 315 3.0 4.0 0.00 0.00 0.00 50 1017.5
20260831033137 65 293 2.0 3.0 0.00 0.00 0.00 49 1017.5
20260831032116 65 315 2.0 3.0 0.00 0.00 0.00 48 1017.5
20260831031136 66 315 4.0 6.0 0.00 0.00 0.00 48 1017.6
20260831030136 66 293 4.0 7.0 0.00 0.00 0.00 47 1017.6
20260831025116 67 338 3.0 4.0 0.00 0.00 0.00 46 1017.5
20260831024116 67 338 4.0 8.0 0.00 0.00 0.00 45 1017.7
20260831023116 68 315 5.0 8.0 0.00 0.00 0.00 44 1017.8
20260831022136 68 338 5.0 11.0 0.00 0.00 0.00 43 1017.8
20260831021136 69 0 4.0 6.0 0.00 0.00 0.00 42 1017.9
20260831020116 69 338 5.0 8.0 0.00 0.00 0.00 41 1017.9
20260831014116 71 338 5.0 9.0 0.00 0.00 0.00 38 1018.1
20260831013116 72 293 8.0 11.0 0.00 0.00 0.00 37 1018.2
20260831012116 72 315 7.0 10.0 0.00 0.00 0.00 37 1018.3
20260831011116 73 270 5.0 9.0 0.00 0.00 0.00 36 1018.4
20260831010116 73 0 9.0 13.0 0.00 0.00 0.00 35 1018.5
20260831005116 73 293 6.0 10.0 0.00 0.00 0.00 36 1018.6
20260831004116 74 338 6.0 10.0 0.00 0.00 0.00 35 1018.6
20260831003116 74 315 6.0 12.0 0.00 0.00 0.00 34 1018.8
20260831002115 75 315 6.0 11.0 0.00 0.00 0.00 33 1018.8
20260831001116 75 315 3.0 4.0 0.00 0.00 0.00 33 1019.0
20260831000116 75 270 4.0 8.0 0.00 0.00 0.00 33 1018.9
20260830235116 75 0 5.0 10.0 0.00 0.00 0.00 33 1018.9
20260830234116 75 338 4.0 7.0 0.00 0.00 0.00 32 1019.0
20260830233115 74 293 4.0 6.0 0.00 0.00 0.00 33 1019.2
20260830232116 74 315 10.0 14.0 0.00 0.00 0.00 33 1019.2
20260830231116 74 338 5.0 10.0 0.00 0.00 0.00 32 1019.4
20260830230116 74 338 3.0 4.0 0.00 0.00 0.00 32 1019.5